Retour au catalogue

OPS 4682 DEB

ActifPO
NORAD 38382·DEBRIS·🇺🇸 United States

Lancé Apr 3, 1965 depuis Vandenberg Space Force Base

Loading…

Prochains Passages (prochaines 24 heures)

TLE

FraisSource: Space-Track

Époque: Sep 14, 2026, 00:47 UTC

1 38382U 65027CK  26257.03303432  .00000011  00000-0  13128-4 0  9995
2 38382  90.2573  11.0144 0023021 294.1574  65.7140 12.96788600 73946

Suivez OPS 4682 DEB en temps réel avec AllMySat

Download on the App Store